Regional Weather Roundup
Issued by NWS Jackson, KY

Home | Current Version | Previous Version | Text Only | Print | Product List | Glossary On
Versions: 1 2 3 4 5 6 7 8 9 10 11 12 13 14 15 16 17 18 19 20 21 22 23 24 25 26 27 28 29 30 31 32 33 34 35 36 37 38 39 40 41 42 43 44 45 46 47 48 49 50
000
ASUS43 KJKL 230310
RWRJKL

EAST KENTUCKY HOURLY WEATHER ROUNDUP
NATIONAL WEATHER SERVICE JACKSON KY
1100 PM EDT TUE AUG 22 2017

NOTE: "FAIR" INDICATES FEW OR NO CLOUDS BELOW 12,000 FEET WITH
NO SIGNIFICANT WEATHER AND/OR OBSTRUCTIONS TO VISIBILITY.

* THESE REPORTS ARE NOT UNDER NWS QUALITY CONTROL AND MAY NOT
  REPORT WEATHER SUCH AS PRECIPITATION AND FOG.

KYZ079-080-083-085-087-088-110-112-115-119-120-230400
...EASTERN KENTUCKY...

CITY           SKY/WX    TMP DP  RH WIND       PRES   REMARKS
JACKSON        CLOUDY    71  69  93 CALM      29.99S
LONDON         HVY RAIN  71  69  93 SW7       30.01R FOG
SOMERSET*      RAIN      70  70 100 CALM      30.02R
MONTICELLO*    LGT RAIN  72  71  97 CALM      30.01F
WILLIAMSBURG*  CLOUDY    72  72 100 NW9       30.01R
MIDDLESBORO*   CLOUDY    73  73 100 CALM      29.99S FOG
HARLAN APT*    CLOUDY    72  70  94 CALM      30.00F VSB 3/4
PIKE CO APT*   LGT RAIN  71  71 100 CALM      29.99F
BIG SANDY APT* LGT RAIN  72  72 100 CALM      29.98F
MOREHEAD APT*  CLOUDY    70  70 100 S5        29.97S
$$

KYZ035-036-041-042-044-050-067-078-099-230400
...CENTRAL KENTUCKY...

CITY           SKY/WX    TMP DP  RH WIND       PRES   REMARKS
MT STERLING*   CLOUDY    70  70 100 SW3       29.99R
FLEMING/MASON* CLOUDY    69  69 100 SW5       29.97S FOG
DANVILLE*      CLOUDY    70  70 100 W3        29.99R
LEXINGTON      CLOUDY    72  69  90 W3        29.98R
FRANKFORT      MOCLDY    71  68  90 SW3       29.96R
LOUISVILLE     CLOUDY    73  71  93 SW6       29.96R
LEBANON*         N/A     72  70  94 CALM      29.98S
GLASGOW*       CLOUDY    72  72 100 CALM      29.98S FOG
BOWLING GREEN  CLOUDY    74  73  97 W5        29.99R
$$

KYZ091>093-OHZ055-061-077-WVZ005-015-034-035-042-230400
...SOUTHERN OHIO/WEST VIRGINIA...

CITY           SKY/WX    TMP DP  RH WIND       PRES   REMARKS
COVINGTON      CLOUDY    71  71 100 SW5       29.95R
COLUMBUS       MOCLDY    74  66  76 NW9       29.91R
DAYTON         CLOUDY    68  64  87 NW6       29.96R
WILMINGTON     CLOUDY    72  68  87 W5        29.94R
HUNTINGTON     CLOUDY    72  70  93 SW6       29.94F
CHARLESTON     CLOUDY    72  69  90 SW5       29.94F
PINEVILLE*     CLOUDY    71  70  96 MISG      30.03F FOG
BECKLEY        PTCLDY    69  67  93 SW9       30.02F
BLUEFIELD      LGT RAIN  70  63  78 W3        30.06F
LOGAN CO APT*  CLOUDY    72  70  94 CALM      29.99F
$$

VAZ002-007-008-TNZ017-027-036-066-071-230400
...SOUTHWEST VIRGINIA/EAST TENNESSEE...

CITY           SKY/WX    TMP DP  RH WIND       PRES   REMARKS
WISE*          MOCLDY    70  70 100 CALM      30.07S
JONESVILLE*    MOCLDY    73  72  94 CALM      30.00F
ABINGDON*      CLOUDY    74  69  85 CALM      30.02F
BRISTOL        CLOUDY    72  67  84 CALM      29.99F
MORRISTOWN*    PTCLDY    81  66  61 VRB6      29.98R
SEVIERVILLE*   CLEAR     75  64  69 CALM      29.97S
KNOXVILLE      MOCLDY    78  68  71 SW9       29.97R
LAFOLLETTE*    PTCLDY    73  73 100 CALM      30.01S
OAK RIDGE      CLOUDY    79  69  71 CALM      29.98R
CROSSVILLE     MOCLDY    75  67  76 CALM      30.02F
NASHVILLE      CLOUDY    74  71  91 W6        30.00R
$$

...KEY TO REMARKS...
VSB - VISIBILITY IN MILES
WCI - WIND CHILL INDEX
HX  - HEAT INDEX

$$



USA.gov is the U.S. government's official web portal to all federal, state and local government web resources and services.